Preview of NWS' New Version of Forecast
This preview is not operational and should not be used for support decisions.

Regional Weather Roundup (RWR)

Issued by Gray - Portland, ME (GYX)

                            
000
ASUS41 KGYX 260310
RWRGYX
WEATHER ROUNDUP FOR MAINE AND NEW HAMPSHIRE
NATIONAL WEATHER SERVICE GRAY ME
1100 PM EDT SUN AUG 25 2019

MEZ002-005-006-010-012-015-018-020-021-024-026-027-029-260400-
MAINE
  
CITY           SKY/WX    TMP DP  RH WIND       PRES   REMARKS
PORTLAND       FAIR      54  49  83 NW3       30.32F                  
SANFORD        FAIR      47  46  97 W3        30.33F                  
BAR HARBOR     FAIR      54  53  97 CALM      30.33S                  
WISCASSET      FAIR      49  46  90 CALM      30.34F                  
ROCKLAND       FAIR      49  48  97 CALM      30.32F                  
FRYEBURG       FAIR      49  48  97 CALM      30.35S FOG              
LEWISTONAUBURN FAIR      53  51  93 CALM      30.34F                  
AUGUSTA        FAIR      56  49  77 CALM      30.34F                  
WATERVILLE     FAIR      54  50  86 CALM      30.31F                  
BANGOR         FAIR      53  52  96 CALM      30.33F                  
GREENVILLE       N/A     56  47  71 CALM      30.33S                  
MILLINOCKET    FAIR      54  51  90 CALM      30.34S                  
HOULTON        FAIR      51  47  86 CALM      30.32S                  
PRESQUE ISLE   FAIR      52  50  93 CALM      30.33S FOG              
FRENCHVILLE    FAIR      63  42  46 CALM      30.31F                  
CARIBOU        FAIR      56  49  77 S3        30.31S                  
$$

NHZ002-005-008-009-011-012-014-260400-
NEW HAMPSHIRE
  
CITY           SKY/WX    TMP DP  RH WIND       PRES   REMARKS
PORTSMOUTH     CLEAR     56  51  84 N8        30.30F                  
ROCHESTER      FAIR      53  49  86 NW7       30.32F                  
NASHUA         FAIR      51  50  96 NW6       30.32F                  
MANCHESTER     FAIR      56  50  80 N5        30.30F                  
CONCORD        FAIR      52  49  89 CALM      30.33S                  
LACONIA        FAIR      54  52  93 CALM      30.34S                  
PLYMOUTH       FAIR      50  48  94 CALM      30.34S                  
BERLIN         NOT AVBL                                               
WHITEFIELD     FAIR      46  42  86 CALM      30.33S                  
JAFFREY        FAIR      51  45  79 CALM      30.33F                  
KEENE          FAIR      51  48  89 CALM      30.33F                  
LEBANON        FAIR      53  48  83 CALM      30.33R                  
MT WASHINGTON  CLEAR     43  10  26 E16         N/A                   
$$

VTZ005-007-008-260400-
VERMONT
  
CITY           SKY/WX    TMP DP  RH WIND       PRES   REMARKS
ST JOHNSBURY     N/A     52  50  93 MISG      30.31S                  
MONTPELIER     FAIR      51  46  83 S5        30.36S                  
BURLINGTON     FAIR      62  55  77 NE3       30.28S                  
$$

MAZ007-012-024-CTZ003-RIZ002-NYZ038-NYZ072-260400-
SOUTHERN NEW ENGLAND AND NY
  
CITY           SKY/WX    TMP DP  RH WIND       PRES   REMARKS
BOSTON         FAIR      61  54  77 N9        30.29F                  
WORCESTER      FAIR      52  45  77 N7        30.30F                  
NANTUCKET      FAIR      61  57  87 NE13      30.22F                  
PROVIDENCE     CLOUDY    62  56  80 NE13      30.28S                  
HARTFORD       FAIR      56  46  69 NE8       30.29S                  
ALBANY         FAIR      61  48  62 S3        30.28S                  
NEW YORK CITY  FAIR      68  57  68 E14       30.22F                  
$$

ANZ081-ANZ082-ANZ150-NHZ014-MEZ023>029-260400-
COASTAL MARINE OBSERVATIONS
  
STATION/POSITION TIME  TEMP    WIND        PRES    WAVE
                       AIR SEA DIR/SP/G            HT/PER
                 (UTC) (F)     (DEG/KT/KT) (MB)    (FT/S)
MATINICUS ROCK   0250   57                 1026.0F
ISLE OF SHOALS   0200   63      50/ 12/ 13 1025.9F
JEFFREYS LEDGE   0238      67                N/A     5/ 7
CASHES LEDGE BUO 0250   62 62   60/ 10/ 12 1026.3F   4/ 8
GEORGES BANK BUO 0250   64 64   10/ 17/ 19 1020.9F   7/ 8
$$

.............KEY..............
   WCI - WIND CHILL
   TC  - TEMPERATURE IN CELSIUS
   VSB - VISIBILITY IN MILES
   HX  - HEAT INDEX
   FAIR- INDICATES FEW OR NO CLOUDS BELOW 12,000 FT, WITH NO 
         SIGNIFICANT WEATHER AND/OR OBSTRUCTIONS TO VISIBILITY.